Gallup, NM

9:20 AM MDT on September 27, 2016 (GMT -0600)
Gallup Municipal

Weather History for KGUP - November, 2013

Change the Weather History Date:

Thursday, November 14, 2013

  Actual Average Record
Temperature  
Mean Temperature 40 °F -  
Max Temperature 59 °F 52 °F 71 °F (1999)
Min Temperature 21 °F 19 °F 5 °F (2000)
Degree Days  
Heating Degree Days 25    
Moisture  
Dew Point 20 °F    
Average Humidity 55    
Maximum Humidity 89    
Minimum Humidity 14    
Precipitation  
Precipitation 0.00 in - - ()
Sea Level Pressure  
Sea Level Pressure 30.09 in    
Wind  
Wind Speed 3 mph (NNE)    
Max Wind Speed 17 mph    
Max Gust Speed -    
Visibility 10 miles    
Events      
Averages and records for this station are not official NWS values.
T = Trace of Precipitation, MM = Missing Value Source: NWS Daily Summary

Daily Weather History Graph

Daily Weather History Graph

Search for Another Location

Airport or City:

Trip Planner

Search our weather history database for the weather conditions in past years. The results will help you decide how hot, cold, wet, or windy it might be!

Date:

Astronomy

Nov. 14, 2013 Rise Set
Actual Time 6:49 AM MST 5:08 PM MST
Civil Twilight 6:22 AM MST 5:36 PM MST
Nautical Twilight 5:52 AM MST 6:06 PM MST
Astronomical Twilight 5:21 AM MST 6:36 PM MST
Moon 3:27 PM MST (11/14) 3:54 AM MST (11/14)
Length of Visible Light 11h 13m
Length of Day
10h 19m
Waxing Gibbous, 92% of the Moon is Illuminated
Nov 14
Waxing Gibbous
Nov 17
Full
Nov 25
Last Quarter
Dec 2
New
Dec 9
First Quarter

Hourly Weather History & Observations

Time (MST) Temp. Windchill Dew Point Humidity Pressure Visibility Wind Dir Wind Speed Gust Speed Precip Events Conditions
12:53 AM 27.0 °F - 24.1 °F 89% 30.09 in 10.0 mi Calm Calm - N/A   Clear
1:53 AM 21.9 °F 17.2 °F 18.0 °F 85% 30.12 in 10.0 mi ENE 3.5 mph - N/A   Clear
2:53 AM 27.0 °F - 23.0 °F 85% 30.10 in 10.0 mi Calm Calm - N/A   Mostly Cloudy
3:53 AM 28.0 °F - 21.9 °F 78% 30.07 in 10.0 mi Calm Calm - N/A   Overcast
4:53 AM 30.0 °F - 24.1 °F 79% 30.09 in 10.0 mi Calm Calm - N/A   Overcast
5:53 AM 30.9 °F 24.3 °F 25.0 °F 79% 30.12 in 10.0 mi NE 6.9 mph - N/A   Overcast
6:53 AM 30.0 °F 26.5 °F 25.0 °F 82% 30.20 in 10.0 mi NNE 3.5 mph - N/A   Scattered Clouds
7:53 AM 30.9 °F - 26.1 °F 82% 30.22 in 10.0 mi Calm Calm - N/A   Clear
8:53 AM 37.9 °F - 28.0 °F 68% 30.19 in 10.0 mi Calm Calm - N/A   Clear
9:53 AM 46.0 °F - 28.9 °F 51% 30.13 in 10.0 mi Calm Calm - N/A   Clear
10:53 AM 51.1 °F - 28.0 °F 41% 30.12 in 10.0 mi Variable 3.5 mph - N/A   Clear
11:53 AM 54.0 °F - 25.0 °F 33% 30.07 in 10.0 mi Calm Calm - N/A   Clear
12:53 PM 57.0 °F - 24.1 °F 28% 30.00 in 10.0 mi Variable 3.5 mph - N/A   Clear
2:53 PM 59.0 °F - 10.0 °F 14% 30.07 in 10.0 mi WNW 17.3 mph - N/A   Unknown
3:53 PM 57.0 °F - 12.0 °F 17% 30.07 in 10.0 mi WNW 15.0 mph - N/A   Clear
4:53 PM 54.0 °F - 15.1 °F 22% 30.06 in 10.0 mi NW 6.9 mph - N/A   Clear
5:53 PM 43.0 °F 41.3 °F 16.0 °F 34% 30.06 in 10.0 mi WSW 3.5 mph - N/A   Clear
6:53 PM 37.9 °F - 14.0 °F 38% 30.05 in 10.0 mi Calm Calm - N/A   Clear
7:53 PM 34.0 °F - 14.0 °F 44% 30.05 in 10.0 mi Calm Calm - N/A   Clear
8:53 PM 33.1 °F 28.7 °F 15.1 °F 48% 30.04 in 10.0 mi ENE 4.6 mph - N/A   Clear
9:53 PM 30.9 °F 26.2 °F 14.0 °F 50% 30.03 in 10.0 mi ENE 4.6 mph - N/A   Clear
10:53 PM 30.9 °F 25.2 °F 16.0 °F 54% 30.02 in 10.0 mi NE 5.8 mph - N/A   Clear
11:53 PM 28.0 °F 22.8 °F 15.1 °F 58% 30.00 in 10.0 mi ENE 4.6 mph - N/A   Clear